Regional Weather Roundup
Issued by NWS

Home | Current Version | Previous Version | Graphics & Text | Print | Product List | Glossary On
Versions: 1 2 3 4 5 6 7 8 9 10 11 12 13 14 15 16 17 18 19 20 21 22 23 24 25 26 27 28 29 30 31 32 33 34 35 36 37 38 39 40 41 42 43 44 45 46 47 48 49 50
000
ASUS45 KTFX 241910
RWRMT
MONTANA REGIONAL WEATHER ROUNDUP
NATIONAL WEATHER SERVICE GREAT FALLS MT
100 PM MDT SAT JUN 24 2017

NOTE: "FAIR" INDICATES FEW OR NO CLOUDS BELOW 12000 FEET WITH NO
SIGNIFICANT WEATHER AND/OR OBSTRUCTIONS TO VISIBILITY.

MTZ001>007-043-242000-
WEST OF THE DIVIDE

CITY           SKY/WX    TMP DP  RH WIND       PRES   REMARKS
KALISPELL      SUNNY     73  44  35 CALM      30.27F
MISSOULA       SUNNY     75  40  28 S3        30.26F
BUTTE          SUNNY     70  31  23 N8        30.35S
MULLAN PASS    SUNNY     65  31  28 CALM      30.38S
ANACONDA         N/A     68  34  28 NW5       30.31F
DEER LODGE       N/A     70  36  28 N3        30.34F
EUREKA           N/A     72  43  35 MISG      30.27F
HAMILTON         N/A     72  39  30 N5        30.27F
$$

MTZ008-052>055-242000-
SOUTHWEST MONTANA

CITY           SKY/WX    TMP DP  RH WIND       PRES   REMARKS
BOZEMAN        SUNNY     71  40  32 NW3       30.32F
DILLON         SUNNY     68  38  33 VRB3      30.33F
W YELLOWSTONE  SUNNY     66  28  24 NW9       30.37F
ENNIS          SUNNY     68  39  34 N8        30.38F
THREE FORKS      N/A     69  38  32 SE3       30.28F
$$

MTZ009-010-012-014-046-048-049-054-242000-
EAST SLOPES AND CENTRAL MONTANA

CITY           SKY/WX    TMP DP  RH WIND       PRES   REMARKS
CUT BANK       MOSUNNY   67  39  35 CALM      30.33F
GREAT FALLS    SUNNY     70  34  26 VRB6      30.32F
MALMSTROM AFB  SUNNY     68  37  32 NE3       30.32F
HELENA         SUNNY     74  38  27 VRB3      30.29F
CHOTEAU          N/A     70  39  32 S12       30.34F
$$

MTZ011-013-016-021-045-047-050-051-242000-
NORTH CENTRAL MONTANA

CITY           SKY/WX    TMP DP  RH WIND       PRES   REMARKS
HAVRE          PTSUNNY   72  37  28 VRB3      30.31S
LEWISTOWN      PTSUNNY   64  34  32 VRB5      30.35S
N BAR RANCH    PTSUNNY   66  32  28 CALM      30.38S
CHINOOK          N/A     70  36  28 SW3       30.30F
FORT BENTON      N/A     72  37  28 MISG      30.33
$$

MTZ017>020-022>027-061-062-242000-
NORTHEAST MONTANA

CITY           SKY/WX    TMP DP  RH WIND       PRES   REMARKS
GLASGOW        MOSUNNY   70  32  24 N12G17    30.30S
JORDAN           N/A     71  32  23 N8        30.30S
SIDNEY         MOSUNNY   66  34  30 N14G23    30.29S
WOLF POINT     MOSUNNY   72  31  22 NW10G18   30.29S
MALTA          MOSUNNY   70  32  24 CALM      30.30S
PLENTYWOOD       N/A     63  36  36 NW21G29   30.27F
POPLAR           N/A     66  34  30 N14       30.29F
$$

MTZ028>42-056>058-242000-
SOUTHCENTRAL AND SOUTHEAST MONTANA

CITY           SKY/WX    TMP DP  RH WIND       PRES   REMARKS
BAKER          SUNNY     67  31  26 N18G29    30.30F
BILLINGS       MOSUNNY   71  31  22 VRB5G21   30.32F
LIVINGSTON     SUNNY     70  40  33 NE12G17   30.33S
MILES CITY     SUNNY     73  29  19 N14G24    30.29S
BIG TIMBER     SUNNY     68  36  30 VRB6      30.36F
FORSYTH          N/A     72  34  25 NW14      30.28F
ROUNDUP          N/A     73  31  21 N5        30.21S
$$

REGIONAL REPORTS...DAKOTAS

CITY           SKY/WX    TMP DP  RH WIND       PRES   REMARKS
WILLISTON      PTSUNNY   65  35  33 NW18G30   30.29S
MINOT          CLOUDY    58  42  55 NW16G25   30.22R
DICKINSON      SUNNY     63  29  27 N21G31    30.25S
BEACH            N/A     64  32  29 NW17G28   30.33S
CROSBY         PTSUNNY   59  36  41 N18G29    30.28R
TIOGA          PTSUNNY   59  36  41 N22G37    30.28R
WATFORD CITY   PTSUNNY   61  37  41 NW17G28   30.27S
BISMARCK       PTSUNNY   62  39  42 N21G29    30.22S
GRAND FORKS    LGT RAIN  55  52  89 NW15G24   30.04R
FARGO          CLOUDY    60  44  55 W26G32    30.05S
BUFFALO SD       N/A     70  34  26 N20G31    30.21S
RAPID CITY     MOSUNNY   72  31  22 NW21G33   30.27S
$$

REGIONAL REPORTS...WYOMING/IDAHO/WASHINGTON

CITY           SKY/WX    TMP DP  RH WIND       PRES   REMARKS
GILLETTE       MOSUNNY   70  30  22 NW14G20   30.33S
SHERIDAN       SUNNY     71  35  26 N12G23    30.33F
BUFFALO WY     SUNNY     63  35  35 N9G24     30.37S
CODY           SUNNY     67  34  29 NE9       30.35F
YELLOWSTONE LA   N/A     60  35  39 VRB6      30.45S
IDAHO FALLS    SUNNY     75  39  27 VRB3      30.28S
SALMON         SUNNY     73  39  29 N5        30.24F
BOISE          SUNNY     80  40  23 N8        30.18F
SPOKANE        MOSUNNY   79  40  24 NE8       30.24S
$$

REGIONAL REPORTS...ALBERTA

CITY           SKY/WX    TMP DP  RH WIND       PRES   REMARKS
EDMONTON       MOSUNNY   70  48  46 NW7       30.27S
CALGARY        MOSUNNY   66  39  37 VRB9      30.34F
LETHBRIDGE     MOSUNNY   68  43  40 VRB3      30.33S
MEDICINE HAT   TSTM      63  50  63 NW21G28   30.32R
WATERTON GATE    N/A     66  43  42 NE6         N/A
CARDSTON         N/A     68  43  40 NE5         N/A
MILK RIVER       N/A     68  43  40 NE6         N/A
ONEFOUR          N/A     66  37  34 W7          N/A
$$

REGIONAL REPORTS...SASKATCHEWAN

CITY           SKY/WX    TMP DP  RH WIND       PRES   REMARKS
SWIFT CURRENT  MOSUNNY   66  41  39 NW12G18   30.29S
REGINA         MOSUNNY   63  37  39 NW14G22   30.28S
SASKATOON      MOSUNNY   66  39  37 W10G20    30.24F
CYPRESS HILLS    N/A     59  34  38 N6          N/A
VAL MARIE        N/A     68  34  28 N8          N/A
ROCKGLEN         N/A     64  34  32 N10G18      N/A
ASSINIBOIA       N/A     72  46  40 NW8         N/A
$$



USA.gov is the U.S. government's official web portal to all federal, state and local government web resources and services.